Cloud_Cover
0 0 0 0 0 0 5 6 0 11 1 1 0 0 0 0 0 0 0 0 0 7 0 59 0 0 12 20 7 5 4 0 1 5 5 5 5 5 5 5 86 5 4
2 0 0 0 0 0 0 1 0 1 7 0 0 0 0 0 0 0 0 0 0 0 0 77 0 1 20 1 4 0 28 0 0 2 10 38 11 10 5 5 85 24 0
15 0 0 0 0 0 0 0 0 0 1 0 0 0 0 0 0 0 0 0 0 0 0 1 0 9 3 25 8 3 1 18 0 0 13 37 79 17 52 61 54 88 5
0 0 0 0 0 0 0 0 0 2 5 0 0 0 0 0 0 0 0 0 0 0 0 0 0 0 2 13 8 17 3 0 0 0 0 0 5 50 94 62 30 96 60
0 0 0 0 4 0 0 0 0 0 0 0 0 0 0 0 0 0 0 0 0 0 0 0 0 0 0 8 8 11 0 1 0 0 0 0 0 0 1 99 58 5 6
0 0 0 0 0 0 0 0 0 0 0 0 0 0 0 0 0 0 0 0 0 0 0 0 0 0 0 2 24 45 13 0 0 0 0 0 0 0 2 5 4 31 51
0 0 0 0 0 0 0 0 0 0 0 0 0 0 0 0 0 0 0 0 0 0 0 0 0 0 0 0 8 41 17 4 0 0 0 0 0 0 4 4 5 5 64
0 0 0 0 0 0 0 0 4 0 0 0 0 0 0 0 0 0 0 0 0 0 0 0 0 0 0 0 6 20 9 2 0 0 0 0 0 0 4 5 5 5 27
0 0 0 0 0 0 0 0 1 3 0 0 0 0 0 0 0 0 0 0 0 0 0 0 0 0 0 0 2 0 13 0 0 0 0 0 5 0 3 8 45 5 10
0 0 0 0 0 0 0 0 0 0 0 0 0 0 0 0 0 0 0 0 0 0 0 0 0 0 0 0 0 1 5 6 0 0 0 0 4 5 87 72 6 5 5
0 0 0 0 0 0 1 0 0 0 0 0 0 0 0 0 0 0 0 0 0 0 0 0 0 0 0 0 0 0 0 2 0 0 0 0 1 5 13 97 61 3 3
1 1 2 0 0 0 3 5 0 0 0 0 5 0 0 0 0 0 0 0 0 0 4 0 0 0 0 0 0 0 0 0 0 0 0 0 2 5 62 65 34 5 5
0 0 0 5 8 5 5 5 5 0 0 0 0 0 4 5 0 0 0 0 0 62 8 0 0 0 0 0 0 0 0 0 0 0 5 7 11 32 98 100 96 3 5
0 2 0 0 5 5 6 100 31 5 4 0 0 0 4 5 0 0 0 0 0 0 0 0 0 0 0 0 0 0 0 0 0 0 5 5 5 62 100 100 92 4 5
1 5 5 5 5 5 6 32 100 100 7 4 2 4 0 0 0 0 0 0 0 0 0 0 0 0 0 0 0 0 0 0 0 0 0 3 12 57 100 98 13 29 5
0 0 5 5 5 5 5 5 5 10 5 4 0 0 0 0 0 0 0 0 0 0 0 0 0 0 0 0 0 0 0 0 0 0 0 2 0 34 100 70 16 100 13
0 0 2 4 0 4 4 2 3 2 0 0 0 2 4 2 0 1 0 0 0 0 0 0 0 0 0 0 0 0 0 0 0 0 0 16 2 100 99 47 95 100 16
0 0 0 0 3 5 4 5 3 2 1 0 4 2 10 92 2 4 3 0 0 0 0 0 0 0 0 0 0 0 0 0 0 0 0 10 52 100 100 20 99 100 99
0 0 0 0 0 0 0 0 0 0 0 0 0 4 5 62 11 1 0 0 0 0 0 0 0 0 0 0 0 0 0 0 0 0 1 35 80 100 99 47 76 100 100
0 0 0 0 0 0 0 0 0 0 0 0 0 0 0 7 96 1 0 0 0 1 0 0 4 0 3 5 5 7 0 2 58 4 1 0 86 100 97 79 100 100 100
1 0 0 0 0 0 0 0 0 0 0 0 0 0 0 0 1 0 0 0 0 0 0 0 1 2 2 4 5 5 4 1 4 5 5 44 100 100 98 81 100 100 100
5 5 5 3 0 0 0 0 0 0 0 0 0 0 0 0 0 0 0 0 0 2 0 5 0 0 2 10 49 89 44 4 4 34 9 93 100 100 100 100 100 100 100
5 5 5 5 4 0 0 0 0 0 0 0 0 0 0 0 0 0 1 26 11 0 22 1 0 1 4 18 32 40 86 86 13 98 100 100 100 100 100 100 100 100 100
0 1 5 4 0 0 0 0 0 0 0 0 0 0 0 0 3 0 14 8 7 44 0 5 5 5 6 6 81 97 70 39 99 95 100 100 100 100 100 100 100 100 100
0 0 0 2 5 1 0 0 0 0 0 0 0 0 0 0 2 2 0 0 0 0 0 5 5 9 13 100 94 88 100 100 100 100 100 100 100 100 100 100 100 100 100
70 67 77 48 0 0 0 1 0 0 0 0 0 3 0 0 0 0 0 87 49 90 100 86 54 34 99 100 100 100 100 100 100 100 100 100 100 100 100 100 100 100 100